Location: Équennes
(49.7375°N, 1.9622°E)
Time: 18:27:48
(UTC+00:00)

Cosmos 2278 - Pass Details

Date: 02 October 2023
Orbit: 838 x 853 km, 71.1° (Epoch: 08 December)

Event Time Altitude Azimuth Distance (km) Brightness Sun altitude
Rises 00:18:42 0° 333° (NNW) 3,428 7.4 -43.0°
Reaches altitude 10° 00:21:18 10° 340° (NNW) 2,491 6.6 -42.9°
Enters shadow 00:22:16 15° 344° (NNW) 2,162 6.2 -42.9°
